Bigfork, MN

11:16 PM CDT on April 26, 2017 (GMT -0500)
Bigfork Municipal

Weather History for KFOZ - January, 2013

Change the Weather History Date:

Tuesday, January 15, 2013

  Actual Average (KGPZ) Record (KGPZ)
Temperature  
Mean Temperature 13 °F -  
Max Temperature 23 °F 16 °F 39 °F (1919)
Min Temperature 3 °F -4 °F -43 °F (1972)
Degree Days  
Heating Degree Days 52    
Moisture  
Dew Point 5 °F    
Average Humidity 71    
Maximum Humidity 85    
Minimum Humidity 54    
Precipitation  
Precipitation 0.00 in - - ()
Sea Level Pressure  
Sea Level Pressure 29.91 in    
Wind  
Wind Speed 9 mph (SSW)    
Max Wind Speed 21 mph    
Max Gust Speed 26 mph    
Visibility 10 miles    
Events Snow    
Averages and records for this station are not official NWS values.
T = Trace of Precipitation, MM = Missing Value Source: NWS Daily Summary

Daily Weather History Graph

Daily Weather History Graph

Search for Another Location

Airport or City:

Trip Planner

Search our weather history database for the weather conditions in past years. The results will help you decide how hot, cold, wet, or windy it might be!

Date:

Astronomy

Jan. 15, 2013 Rise Set
Actual Time 7:58 AM CST 4:50 PM CST
Civil Twilight 7:23 AM CST 5:25 PM CST
Nautical Twilight 6:45 AM CST 6:03 PM CST
Astronomical Twilight 6:08 AM CST 6:40 PM CST
Moon 9:41 AM CST (1/15) 10:05 PM CST (1/15)
Length of Visible Light 10h 01m
Length of Day
8h 51m
Waxing Crescent, 19% of the Moon is Illuminated
Jan 15
Waxing Crescent
Jan 18
First Quarter
Jan 26
Full
Feb 3
Last Quarter
Feb 10
New

Hourly Weather History & Observations

Time (CST) Temp. Windchill Dew Point Humidity Pressure Visibility Wind Dir Wind Speed Gust Speed Precip Events Conditions
12:13 AM 3.2 °F -4.2 °F -2.2 °F 78% 30.13 in 10.0 mi South 3.5 mph - N/A   Overcast
12:33 AM 3.2 °F -4.2 °F -0.4 °F 85% 30.13 in 10.0 mi SSW 3.5 mph - N/A   Overcast
12:53 AM 6.8 °F -4.8 °F 1.4 °F 79% 30.13 in 10.0 mi South 6.9 mph - N/A   Overcast
1:13 AM 5.0 °F -6.9 °F -0.4 °F 78% 30.13 in 10.0 mi SSW 6.9 mph - N/A   Overcast
1:33 AM 3.2 °F -6.2 °F -2.2 °F 78% 30.12 in 10.0 mi SSW 4.6 mph - N/A   Mostly Cloudy
1:53 AM 5.0 °F -10.0 °F 1.4 °F 85% 30.12 in 10.0 mi SSW 10.4 mph - N/A   Mostly Cloudy
2:13 AM 6.8 °F -4.8 °F 1.4 °F 79% 30.12 in 10.0 mi SW 6.9 mph - N/A Snow Light Snow
2:33 AM 6.8 °F -4.8 °F 1.4 °F 79% 30.12 in 10.0 mi SW 6.9 mph - N/A Snow Light Snow
2:53 AM 6.8 °F -3.5 °F 1.4 °F 79% 30.11 in 10.0 mi SW 5.8 mph - N/A Snow Light Snow
3:13 AM 6.8 °F -5.9 °F 1.4 °F 79% 30.11 in 10.0 mi SW 8.1 mph - N/A Snow Light Snow
3:33 AM 6.8 °F -5.9 °F 1.4 °F 79% 30.10 in 10.0 mi WSW 8.1 mph - N/A Snow Light Snow
3:53 AM 6.8 °F -5.9 °F 1.4 °F 79% 30.10 in 10.0 mi SW 8.1 mph - N/A   Overcast
4:13 AM 6.8 °F -5.9 °F 1.4 °F 79% 30.09 in 10.0 mi SW 8.1 mph - N/A   Overcast
4:33 AM 6.8 °F -5.9 °F 1.4 °F 79% 30.08 in 10.0 mi SSW 8.1 mph - N/A   Overcast
4:53 AM 6.8 °F -5.9 °F 1.4 °F 79% 30.08 in 10.0 mi SW 8.1 mph - N/A   Overcast
5:13 AM 6.8 °F -4.8 °F 1.4 °F 79% 30.07 in 10.0 mi SSW 6.9 mph - N/A Snow Light Snow
5:33 AM 5.0 °F -5.6 °F -0.4 °F 78% 30.07 in 10.0 mi SSW 5.8 mph - N/A   Overcast
5:53 AM 3.2 °F -7.8 °F -0.4 °F 85% 30.06 in 10.0 mi SSW 5.8 mph - N/A Snow Light Snow
6:13 AM 3.2 °F -10.3 °F -0.4 °F 85% 30.06 in 10.0 mi SSW 8.1 mph - N/A Snow Light Snow
6:33 AM 3.2 °F -9.1 °F -2.2 °F 78% 30.06 in 10.0 mi South 6.9 mph - N/A Snow Light Snow
6:53 AM 3.2 °F -9.1 °F -0.4 °F 85% 30.05 in 10.0 mi SSW 6.9 mph - N/A   Clear
7:13 AM 3.2 °F -9.1 °F -0.4 °F 85% 30.05 in 10.0 mi South 6.9 mph - N/A   Clear
7:33 AM 3.2 °F -10.3 °F -0.4 °F 85% 30.05 in 10.0 mi South 8.1 mph - N/A   Clear
7:53 AM 3.2 °F -10.3 °F -0.4 °F 85% 30.05 in 10.0 mi South 8.1 mph - N/A   Clear
8:13 AM 3.2 °F -10.3 °F -0.4 °F 85% 30.05 in 10.0 mi South 8.1 mph - N/A   Clear
8:33 AM 5.0 °F -8.1 °F -0.4 °F 78% 30.04 in 10.0 mi South 8.1 mph - N/A   Clear
8:53 AM 6.8 °F -8.6 °F 1.4 °F 79% 30.05 in 10.0 mi South 11.5 mph - N/A   Mostly Cloudy
9:13 AM 6.8 °F -7.8 °F 1.4 °F 79% 30.05 in 10.0 mi SSW 10.4 mph - N/A   Overcast
9:33 AM 8.6 °F -4.7 °F 3.2 °F 79% 30.04 in 10.0 mi South 9.2 mph - N/A   Overcast
9:53 AM 8.6 °F -5.5 °F 3.2 °F 79% 30.03 in 10.0 mi South 10.4 mph - N/A   Overcast
10:13 AM 8.6 °F -4.7 °F 3.2 °F 79% 30.02 in 10.0 mi South 9.2 mph - N/A   Overcast
10:33 AM 10.4 °F -3.3 °F 5.0 °F 79% 30.01 in 10.0 mi South 10.4 mph - N/A   Overcast
10:53 AM 12.2 °F -0.2 °F 5.0 °F 73% 30.00 in 10.0 mi South 9.2 mph - N/A   Overcast
11:13 AM 12.2 °F -1.8 °F 5.0 °F 73% 29.99 in 10.0 mi South 11.5 mph - N/A   Overcast
11:33 AM 12.2 °F -1.8 °F 5.0 °F 73% 29.97 in 10.0 mi South 11.5 mph - N/A   Overcast
11:53 AM 15.8 °F 2.1 °F 5.0 °F 62% 29.95 in 10.0 mi South 12.7 mph 19.6 mph N/A   Mostly Cloudy
12:13 PM 15.8 °F 0.9 °F 5.0 °F 62% 29.93 in 10.0 mi South 15.0 mph - N/A   Clear
12:33 PM 17.6 °F 3.2 °F 6.8 °F 63% 29.92 in 10.0 mi South 15.0 mph 19.6 mph N/A   Clear
12:53 PM 17.6 °F 4.3 °F 6.8 °F 63% 29.90 in 10.0 mi South 12.7 mph - N/A   Clear
1:13 PM 19.4 °F 7.9 °F 8.6 °F 63% 29.88 in 10.0 mi South 10.4 mph 17.3 mph N/A   Clear
1:33 PM 19.4 °F 7.2 °F 8.6 °F 63% 29.87 in 10.0 mi South 11.5 mph 18.4 mph N/A   Clear
1:53 PM 21.2 °F 8.3 °F 8.6 °F 58% 29.86 in 10.0 mi South 13.8 mph 18.4 mph N/A   Clear
2:13 PM 21.2 °F 7.8 °F 8.6 °F 58% 29.86 in 10.0 mi SSW 15.0 mph 23.0 mph N/A   Clear
2:33 PM 23.0 °F 9.2 °F 8.6 °F 54% 29.85 in 10.0 mi SSW 17.3 mph 21.9 mph N/A   Clear
2:53 PM 23.0 °F 10.1 °F 8.6 °F 54% 29.85 in 10.0 mi SSW 15.0 mph 25.3 mph N/A   Clear
3:33 PM 23.0 °F 8.7 °F 8.6 °F 54% 29.84 in 10.0 mi SSW 18.4 mph 24.2 mph N/A   Clear
3:53 PM 23.0 °F 11.1 °F 8.6 °F 54% 29.83 in 10.0 mi SSW 12.7 mph 20.7 mph N/A   Clear
4:33 PM 21.2 °F 10.1 °F 6.8 °F 54% 29.82 in 10.0 mi SSW 10.4 mph 18.4 mph N/A   Clear
4:53 PM 19.4 °F 9.5 °F 8.6 °F 63% 29.81 in 10.0 mi South 8.1 mph - N/A   Clear
5:13 PM 19.4 °F 7.9 °F 8.6 °F 63% 29.80 in 10.0 mi SSW 10.4 mph - N/A   Clear
5:33 PM 19.4 °F 7.2 °F 8.6 °F 63% 29.79 in 10.0 mi SSW 11.5 mph - N/A   Clear
5:53 PM 19.4 °F 7.2 °F 6.8 °F 58% 29.77 in 10.0 mi SSW 11.5 mph - N/A   Clear
6:13 PM 19.4 °F 6.6 °F 6.8 °F 58% 29.76 in 10.0 mi SSW 12.7 mph 19.6 mph N/A   Clear
6:33 PM 19.4 °F 6.0 °F 6.8 °F 58% 29.75 in 10.0 mi SSW 13.8 mph 19.6 mph N/A   Clear
6:53 PM 19.4 °F 5.5 °F 8.6 °F 63% 29.73 in 10.0 mi SSW 15.0 mph 21.9 mph N/A   Clear
7:13 PM 19.4 °F 6.0 °F 8.6 °F 63% 29.71 in 10.0 mi SSW 13.8 mph 21.9 mph N/A   Clear
7:33 PM 19.4 °F 4.1 °F 6.8 °F 58% 29.70 in 10.0 mi SSW 18.4 mph 23.0 mph N/A   Clear
7:53 PM 19.4 °F 5.0 °F 8.6 °F 63% 29.69 in 10.0 mi SSW 16.1 mph 24.2 mph N/A   Clear
8:13 PM 19.4 °F 5.5 °F 6.8 °F 58% 29.67 in 10.0 mi SSW 15.0 mph 23.0 mph N/A   Clear
8:33 PM 19.4 °F 6.0 °F 6.8 °F 58% 29.67 in 10.0 mi SSW 13.8 mph 24.2 mph N/A   Clear
8:53 PM 19.4 °F 4.5 °F 6.8 °F 58% 29.65 in 10.0 mi SSW 17.3 mph 21.9 mph N/A   Clear
9:13 PM 19.4 °F 5.5 °F 8.6 °F 63% 29.64 in 10.0 mi SSW 15.0 mph 24.2 mph N/A   Clear
9:33 PM 19.4 °F 5.0 °F 8.6 °F 63% 29.63 in 10.0 mi SSW 16.1 mph 26.5 mph N/A   Clear
9:53 PM 19.4 °F 5.0 °F 8.6 °F 63% 29.61 in 10.0 mi SSW 16.1 mph 24.2 mph N/A   Mostly Cloudy
10:13 PM 19.4 °F 3.2 °F 8.6 °F 63% 29.58 in 10.0 mi SSW 20.7 mph 25.3 mph N/A   Mostly Cloudy
10:33 PM 19.4 °F 4.1 °F 8.6 °F 63% 29.56 in 10.0 mi SSW 18.4 mph 25.3 mph N/A   Mostly Cloudy
10:53 PM 19.4 °F 5.0 °F 10.4 °F 68% 29.53 in 10.0 mi South 16.1 mph 21.9 mph N/A   Scattered Clouds
11:13 PM 19.4 °F 4.1 °F 12.2 °F 74% 29.52 in 4.0 mi SSW 18.4 mph 25.3 mph N/A Snow Light Snow
11:33 PM 19.4 °F 4.5 °F 14.0 °F 80% 29.52 in 1.0 mi SSW 17.3 mph 24.2 mph N/A Snow Snow